Regional Weather Roundup
Issued by NWS

Home | Current Version | Previous Version | Text Only | Print | Product List | Glossary On
Versions: 1 2 3 4 5 6 7 8 9 10 11 12 13 14 15 16 17 18 19 20 21 22 23 24 25 26 27 28 29 30 31 32 33 34 35 36 37 38 39 40 41 42 43 44 45 46 47 48 49 50
000
ASUS44 KFWD 301115
RWRTX
NORTH TEXAS HOURLY WEATHER ROUNDUP
NATIONAL WEATHER SERVICE FORT WORTH TX
600 AM CDT TUE MAY 30 2017

NOTE: "FAIR" INDICATES FEW OR NO CLOUDS BELOW 12,000 FEET WITH NO
SIGNIFICANT WEATHER AND/OR OBSTRUCTIONS TO VISIBILITY.

TXZ118-119-301200-
DALLAS/FORT WORTH METROPLEX

CITY           SKY/WX    TMP DP  RH WIND       PRES   REMARKS
DFW AIRPORT    MOCLDY    68  59  73 CALM      30.05R
DALLAS LOVE    PTCLDY    66  60  81 CALM      30.06S
FTW MEACHAM    CLEAR     66  60  81 CALM      30.06R
DAL-EXECUTIVE  PTCLDY    64  62  93 CALM      30.06S
FTW-ALLIANCE   MOCLDY    57  55  93 CALM      30.07R
FTW-NAS-JRB    PTCLDY    65  58  78 CALM      30.07R
FTW-SPINKS     PTCLDY    58  56  94 CALM      30.08S
ARLINGTON      MOCLDY    60  58  92 CALM      30.07S
GRAND PRAIRIE  PTCLDY    66  59  79 CALM      30.08S
ADDISON        CLEAR     68  59  73 CALM      30.07F
MESQUITE       PTCLDY    61  60  96 CALM      30.07S
LANCASTER      CLOUDY    61  59  93 CALM      30.07F
$$

TXZ091>094-102>105-117-120-121-131>134-301200-
NORTH CENTRAL TEXAS

CITY           SKY/WX    TMP DP  RH WIND       PRES   REMARKS
SHRMAN/DENISON PTCLDY    60  55  84 CALM      30.09S
GAINESVILLE    PTCLDY    58  55  88 CALM      30.10R
BOWIE          CLEAR     59  58  97 CALM      30.09R
BRIDGEPORT     PTCLDY    54  54  99 CALM      30.09S
DECATUR        CLEAR     69  53  57 SW3       30.08S
DENTON         CLEAR     59  58  96 CALM      30.07R
MCKINNEY       CLEAR     58  58 100 N6        30.08R
BONHAM         CLEAR     57  55  94 CALM      30.09R FOG
GREENVILLE     PTCLDY    61  61 100 CALM      30.08R
ROCKWALL       MOCLDY    65  65  99 CALM      30.08R
TERRELL        PTCLDY    63  60  90 N3        30.07S
WAXAHACHIE     CLOUDY    62  62 100 CALM      30.08S
CLEBURNE       CLOUDY    66  63  88 NE3       30.08S
GRANBURY       CLOUDY    59  55  84 CALM      30.08S
$$

TXZ083>090-098>101-113>116-127>130-139>142-154-155-301200-
WESTERN NORTH TEXAS

CITY           SKY/WX    TMP DP  RH WIND       PRES   REMARKS
WICHITA FALLS  CLEAR     59  51  75 CALM      30.08R
WF-KICKAPOO    CLEAR     61  52  72 CALM      30.10S
VERNON         CLEAR     64  46  51 N9        30.12R
ABILENE        CLEAR     61  59  93 S8        30.11R
ABILENE-DYESS  CLEAR     59  56  91 SE3       30.10R
GRAHAM           N/A     53  53 100 CALM      30.08R
BRECKENRIDGE   PTCLDY    58  51  76 CALM      30.10R HAZE
CISCO          CLOUDY    64  55  72 S6        30.10S
EASTLAND       CLOUDY    53  51  93 CALM      30.10R
RANGER         CLOUDY    63  60  90 SW3       30.10S
MINERAL WELLS  CLEAR     57  52  83 CALM      30.07R
STEPHENVILLE   CLOUDY    61  55  82 CALM      30.11S
COMANCHE       CLOUDY    63  63 100 CALM      30.09S
BROWNWOOD      CLOUDY    63  59  88 CALM      30.09S
COLEMAN        CLOUDY    62  57  83 CALM      30.10S
$$

TXZ143>147-156>162-174-175-301200-
CENTRAL TEXAS

CITY           SKY/WX    TMP DP  RH WIND       PRES   REMARKS
WACO           PTCLDY    66  65  96 N5        30.05F FOG
WACO-MCGREGOR  PTCLDY    66  65  96 CALM      30.06F FOG
HILLSBORO      MOCLDY    66  66  98 E3        30.06S
CORSICANA      CLOUDY    70  68  93 E3        30.07S FOG
MEXIA          CLOUDY    67  67  99 CALM      30.05F FOG
HEARNE         CLOUDY    67  67 100 CALM      30.05F
CAMERON        FOG       69  68  98 CALM      30.04F VSB 1/4
TEMPLE         MOCLDY    67  67 100 CALM      30.06S
KILLEEN        MOCLDY    68  66  94 N3        30.06R
KILLEEN-SKYLRK CLOUDY    67  67 100 CALM      30.06S FOG
FORT HOOD      MOCLDY    67  65  95 CALM      30.03S
HAMILTON       MOCLDY    65  65 100 CALM      30.08S
LAMPASAS       CLOUDY    68  67  96 CALM      30.07R FOG
$$

TXZ095>097-106>112-122>126-135>138-148>153-164>167-301200-
EAST TEXAS

CITY           SKY/WX    TMP DP  RH WIND       PRES   REMARKS
PARIS          PTCLDY    63  55  77 N3        30.09R
SULPHUR SPRNGS CLEAR     62  60  94 CALM      30.10R
MOUNT PLEASANT CLOUDY    61  61 100 CALM      30.09R VSB<1/4
GILMER         FOG       64  64 100 CALM      30.07R VSB 1/4
MINEOLA        CLOUDY    63  61  94 CALM      30.08R
TYLER          FOG       65  65 100 N3        30.06S VSB 1/2
LONGVIEW       FOG      N/A N/A N/A CALM      30.07R VSB 1/4
MARSHALL       CLOUDY    63  61  94 CALM      30.09R VSB 1/4
ATHENS         PTCLDY    64  64 100 CALM      30.05F
PALESTINE      CLOUDY    66  66 100 CALM      30.07S FOG
JACKSONVILLE   CLEAR     69  69 100 CALM      30.08S
HENDERSON      FOG      N/A N/A N/A CALM      30.08S VSB 1/4
CENTER         CLOUDY    70  68  95 CALM      30.07R FOG
NACOGDOCHES    CLEAR     64  63  94 CALM      30.04R
LUFKIN         FOG       67  67 100 CALM      30.05S VSB 1/4
$$

SUPPLEMENTAL OBSERVATIONS (NWS FORT WORTH AREA)

CITY           SKY/WX    TMP DP  RH WIND       PRES   REMARKS
DENISON DAM      N/A     66  59  77 CALM        N/A
CADDO GRASSLND   N/A     59  57  94 CALM        N/A
PAT MAYSE LAKE   N/A     61  59  94 N1          N/A
GREENVILLE       N/A     61  57  88 CALM        N/A
CEDAR HILL       N/A     64  61  88 CALM        N/A
LBJ GRASSLAND    N/A     61  54  77 CALM        N/A
POSSUM KINGDOM   N/A     61  48  63 W5          N/A
GRANBURY         N/A     57  52  82 W3          N/A
COMANCHE         N/A     63  59  88 NW3         N/A
MCGREGOR         N/A     66  64  94 CALM        N/A
TEMPLE           N/A     70  68  94 NE1         N/A
LAKE LIMESTONE   N/A     66  64  94 CALM        N/A
ATHENS           N/A     66  64  94 CALM        N/A
$$

SUPPLEMENTAL OBSERVATIONS (NWS NORMAN AREA)

CITY           SKY/WX    TMP DP  RH WIND       PRES   REMARKS
GOODLETT         N/A     63  45  51 NW9       30.12S
ODELL            N/A     58  50  77 N3        30.14R
CROWELL          N/A     64  48  56 NW14      30.13R
KNOX CITY        N/A     58  47  66 SW2       30.11S
SEYMOUR          N/A     59  50  72 S2        30.11R
MILLERS CREEK    N/A     61  48  63 SW3         N/A
$$

SUPPLEMENTAL OBSERVATIONS (NWS SAN ANGELO AREA)

CITY           SKY/WX    TMP DP  RH WIND       PRES   REMARKS
WEINERT          N/A     58  47  66 SW2       30.11S
HASKELL          N/A     62  49  63 SW3       30.11S
THROCKMORTON     N/A     61  53  74 SW3       30.11R
STAMFORD         N/A     62  55  78 S1        30.12R
CLYDE            N/A     64  60  88 SE8       30.13R
HAMBY            N/A     59  55  88 S2          N/A
IVIE RESERVOIR   N/A     66  61  82 S2          N/A
COLORADO BEND    N/A     64  63  94 CALM        N/A
$$

SUPPLEMENTAL OBSERVATIONS (NWS SHREVEPORT AREA)

CITY           SKY/WX    TMP DP  RH WIND       PRES   REMARKS
CLARKSVILLE      N/A     59  55  88 CALM        N/A
TEXARKANA        N/A     59  57  94 CALM        N/A
LINDEN           N/A    N/A N/A N/A CALM        N/A
CADDO LAKE       N/A     64  63  94 CALM        N/A
GILMER           N/A     64  63  94 N2          N/A
HENDERSON        N/A     64  63  94 CALM        N/A
LUFKIN           N/A     66  64  94 MISG        N/A
N SABINE NF      N/A     64  63  94 MISG        N/A
S SABINE NF      N/A     66  64  94 CALM        N/A
$$

SUPPLEMENTAL OBSERVATIONS ARE A COLLECTION OF AUTOMATED INSTRUMENTS
THAT ARE MAINTAINED BY A VARIETY OF FEDERAL AND STATE AGENCIES.
CERTAIN ELEMENTS...SUCH AS HUMIDITY VALUES AND SUSTAINED WIND
SPEEDS...MAY BE APPROXIMATED.




USA.gov is the U.S. government's official web portal to all federal, state and local government web resources and services.